Mar Maria — 9HA2859 — position and weather

sailwx.info

Track history (hours):
 
Tides and Currents Weather Stations Pressure Air Temp Water Temp Dewpoint Dewpoint Depression Visibility Wind Speed Wind Dir Waves Ship Positions

Mar Maria

Last reported at 2014-Oct-23 00:33 UTC. Time now 2014-Oct-23 01:33 UTC.
Position N 37°18' W 009°31'.

Length 103 m; draft 5.6 m.

Type: Tanker. MMSI: 256435000.

Date/timePositionNaut miles runAvg speedWind from/ knotsBaromVisibWave heightAir tempDewpointWater temp
2014-Oct-23 00:33N 37°18' W 009°31'1211.4
2014-Oct-22 23:33N 37°06' W 009°28'1111.5
2014-Oct-22 22:33N 36°55' W 009°25'1311.2
2014-Oct-22 21:25N 36°45' W 009°16'1110.8
2014-Oct-22 20:24N 36°39' W 009°04'1011.3
2014-Oct-22 19:32N 36°37' W 008°52'1111.5
2014-Oct-22 18:33N 36°34' W 008°39'1411.7
2014-Oct-22 17:21N 36°31' W 008°21'13711.5
2014-Oct-22 05:28N 35°58' W 005°37'9 9.2
2014-Oct-22 04:33N 35°60' W 005°27'1111.5
2014-Oct-22 03:33N 36°05' W 005°14'1211.4
2014-Oct-22 02:32N 36°11' W 005°01'19211.3
2014-Oct-21 09:32N 37°17' W 001°17'1412.8
2014-Oct-21 08:24N 37°28' W 001°06'7 0.1
2014-Oct-19 12:33N 37°31' W 000°58'1212.1
2014-Oct-19 11:32N 37°28' W 000°43'1313.2
2014-Oct-19 10:33N 37°37' W 000°31'1313.2
2014-Oct-19 09:32N 37°48' W 000°21'1513.2
2014-Oct-19 08:22N 37°58' W 000°06'10 1.9
2014-Oct-19 03:13N 38°03' E 000°04'1 1.1
2014-Oct-19 02:25N 38°04' E 000°05'1 0.8
2014-Oct-19 00:31N 38°05' E 000°06'0 0.4
2014-Oct-18 23:31N 38°05' E 000°06'0 0.3
2014-Oct-18 22:25N 38°05' E 000°06'1 0.6
2014-Oct-18 20:31N 38°04' E 000°07'1 0.7
2014-Oct-18 19:31N 38°03' E 000°08'1 0.7
2014-Oct-18 17:31N 38°03' E 000°09'1 0.6
2014-Oct-18 16:30N 38°03' E 000°10'1 0.5
2014-Oct-18 15:30N 38°02' E 000°11'0 0.4
2014-Oct-18 14:30N 38°02' E 000°11'1 0.5
2014-Oct-18 13:30N 38°03' E 000°12'1 0.5
2014-Oct-18 12:27N 38°03' E 000°12'1 0.5
2014-Oct-18 11:03N 38°03' E 000°13'0 0.4
2014-Oct-18 10:33N 38°03' E 000°13'5 5.2
2014-Oct-18 09:33N 38°09' E 000°14'1212.2
2014-Oct-18 08:33N 38°21' E 000°14'1212.1
2014-Oct-18 07:33N 38°33' E 000°15'1412.2
2014-Oct-18 06:23N 38°45' E 000°25'1111.8
2014-Oct-18 05:28N 38°54' E 000°32'1111.5
2014-Oct-18 04:33N 39°04' E 000°38'1211.5
2014-Oct-18 03:31N 39°14' E 000°45'2511.3
2014-Oct-18 01:16N 39°37' E 001°01'811.9
2014-Oct-18 00:33N 39°44' E 001°06'1212.0
2014-Oct-17 23:33N 39°55' E 001°13'1212.2
2014-Oct-17 22:34N 40°05' E 001°21'1312.6
2014-Oct-17 21:33N 40°17' E 001°29'1212.2
2014-Oct-17 20:33N 40°27' E 001°36'1211.7
2014-Oct-17 19:33N 40°38' E 001°43'1111.4
2014-Oct-17 18:33N 40°48' E 001°50'1111.4
2014-Oct-17 17:34N 40°58' E 001°57'1211.6
2014-Oct-17 16:33N 41°08' E 002°05'1111.0
2014-Oct-17 15:33N 41°18' E 002°10'3 0.4
2014-Oct-17 08:33N 41°21' E 002°09'5 5.0
2014-Oct-17 07:33N 41°17' E 002°13'1 1.0
2014-Oct-17 06:33N 41°16' E 002°15'10 9.6
2014-Oct-17 05:33N 41°15' E 002°27'1313.2
2014-Oct-17 04:33N 41°14' E 002°45'1212.2
2014-Oct-17 03:33N 41°14' E 003°01'5 0.9
2014-Oct-16 22:23N 41°09' E 003°04'3 0.6
2014-Oct-16 17:11N 41°06' E 003°04'6 1.1
2014-Oct-16 12:05N 41°01' E 003°01'1 1.4
2014-Oct-16 11:23N 41°00' E 003°00'1 1.5
2014-Oct-16 10:23N 40°59' E 002°60'1 1.3
2014-Oct-16 09:26N 40°58' E 002°60'1 1.2
2014-Oct-16 08:29N 40°56' E 002°60'2 1.1
2014-Oct-16 07:05N 40°55' E 002°60'1 1.1
2014-Oct-16 06:29N 40°54' E 002°60'1 1.0
2014-Oct-16 05:32N 40°53' E 002°60'1 0.9
2014-Oct-16 04:32N 40°53' E 002°60'1 0.8
2014-Oct-16 03:29N 40°52' E 002°59'1 0.9
2014-Oct-16 02:32N 40°51' E 002°59'1 1.0
2014-Oct-16 01:29N 40°50' E 002°58'1 1.1
2014-Oct-16 00:32N 40°49' E 002°57'1 1.3
2014-Oct-15 23:32N 40°48' E 002°56'1 1.2
2014-Oct-15 22:32N 40°47' E 002°55'1 1.4
2014-Oct-15 21:32N 40°47' E 002°54'1 1.5
2014-Oct-15 20:32N 40°46' E 002°52'2 1.7
2014-Oct-15 19:29N 40°45' E 002°50'2 2.0
2014-Oct-15 18:33N 40°44' E 002°48'2 1.9
2014-Oct-15 17:33N 40°43' E 002°46'2 1.8
2014-Oct-15 16:30N 40°42' E 002°44'3 1.9
2014-Oct-15 15:06N 40°40' E 002°41'1 1.9
2014-Oct-15 14:33N 40°40' E 002°40'2 1.6
2014-Oct-15 13:21N 40°40' E 002°37'1 1.4
2014-Oct-15 12:21N 40°39' E 002°35'1 1.2
2014-Oct-15 11:30N 40°39' E 002°34'1 1.3
2014-Oct-15 10:30N 40°39' E 002°32'1 1.2
2014-Oct-15 09:30N 40°40' E 002°31'1 0.9
2014-Oct-15 08:33N 40°40' E 002°30'1 1.1
2014-Oct-15 07:33N 40°40' E 002°28'1 1.2
2014-Oct-15 06:30N 40°40' E 002°27'1 1.2
2014-Oct-15 05:27N 40°41' E 002°25'1 1.2
2014-Oct-15 04:30N 40°41' E 002°24'1 1.3
2014-Oct-15 03:33N 40°41' E 002°22'1 1.1
2014-Oct-15 02:33N 40°41' E 002°21'1 1.0
2014-Oct-15 01:30N 40°41' E 002°19'1 0.8
2014-Oct-15 00:33N 40°41' E 002°18'1 0.8
2014-Oct-14 23:33N 40°41' E 002°17'1 0.8
2014-Oct-14 22:33N 40°41' E 002°16'1 1.0
2014-Oct-14 21:33N 40°40' E 002°15'1 1.0
2014-Oct-14 20:33N 40°39' E 002°14'1 0.9
2014-Oct-14 19:33N 40°39' E 002°14'1 1.0
2014-Oct-14 18:30N 40°38' E 002°12'1 1.0
2014-Oct-14 17:33N 40°37' E 002°11'5 5.3
2014-Oct-14 16:34N 40°43' E 002°11'1313.3
2014-Oct-14 15:33N 40°56' E 002°12'1313.3
2014-Oct-14 14:33N 41°09' E 002°13'1110.6
2014-Oct-14 13:33N 41°20' E 002°11'0 0.2
2014-Oct-14 12:28N 41°20' E 002°11'0 0.2
2014-Oct-14 09:33N 41°20' E 002°11'11 9.4
2014-Oct-14 08:24N 41°09' E 002°07'1011.6
2014-Oct-14 07:33N 41°01' E 002°00'1110.5
2014-Oct-14 06:33N 40°52' E 001°54'1 1.0
2014-Oct-14 05:27N 40°51' E 001°54'1 1.1
2014-Oct-14 04:33N 40°50' E 001°54'1 1.1
2014-Oct-14 03:30N 40°49' E 001°55'1 1.2
2014-Oct-14 02:30N 40°47' E 001°55'1 1.1
2014-Oct-14 01:24N 40°46' E 001°56'1 1.1
2014-Oct-14 00:33N 40°45' E 001°56'1 1.0
2014-Oct-13 23:33N 40°44' E 001°56'1 1.0
2014-Oct-13 22:33N 40°43' E 001°56'1 0.9
2014-Oct-13 21:19N 40°42' E 001°56'1 1.0
2014-Oct-13 20:33N 40°41' E 001°56'1 1.1
2014-Oct-13 19:33N 40°40' E 001°55'1 1.2
2014-Oct-13 18:32N 40°39' E 001°54'1 1.1
2014-Oct-13 17:33N 40°38' E 001°54'1111.1
2014-Oct-13 16:33N 40°38' E 002°09'1110.9
2014-Oct-13 15:33N 40°38' E 002°23'1010.3
2014-Oct-13 14:33N 40°38' E 002°37'1010.4
2014-Oct-13 13:33N 40°48' E 002°38'1211.6
2014-Oct-13 12:33N 40°60' E 002°37'10 2.4
2014-Oct-13 08:22N 41°10' E 002°39'1 0.8
2014-Oct-13 07:22N 41°09' E 002°39'1 0.9
2014-Oct-13 06:28N 41°08' E 002°39'1 0.9
2014-Oct-13 05:22N 41°07' E 002°39'1 0.8
2014-Oct-13 04:22N 41°06' E 002°39'1 0.8
2014-Oct-13 03:28N 41°06' E 002°38'1 0.9
2014-Oct-13 02:22N 41°05' E 002°38'1 0.9
2014-Oct-13 01:28N 41°04' E 002°38'  
Track history (hours):
 
Tides and Currents Weather Stations Pressure Air Temp Water Temp Dewpoint Dewpoint Depression Visibility Wind Speed Wind Dir Waves Ship Positions

Mar Maria

Last reported at 2014-Oct-23 00:33 UTC. Time now 2014-Oct-23 01:33 UTC.
Position N 37°18' W 009°31'.

Length 103 m; draft 5.6 m.

Type: Tanker. MMSI: 256435000.

Date/timePositionNaut miles runAvg speedWind from/ knotsBaromVisibWave heightAir tempDewpointWater temp
2014-Oct-23 00:33N 37°18' W 009°31'1211.4
2014-Oct-22 23:33N 37°06' W 009°28'1111.5
2014-Oct-22 22:33N 36°55' W 009°25'1311.2
2014-Oct-22 21:25N 36°45' W 009°16'1110.8
2014-Oct-22 20:24N 36°39' W 009°04'1011.3
2014-Oct-22 19:32N 36°37' W 008°52'1111.5
2014-Oct-22 18:33N 36°34' W 008°39'1411.7
2014-Oct-22 17:21N 36°31' W 008°21'13711.5
2014-Oct-22 05:28N 35°58' W 005°37'9 9.2
2014-Oct-22 04:33N 35°60' W 005°27'1111.5
2014-Oct-22 03:33N 36°05' W 005°14'1211.4
2014-Oct-22 02:32N 36°11' W 005°01'19211.3
2014-Oct-21 09:32N 37°17' W 001°17'1412.8
2014-Oct-21 08:24N 37°28' W 001°06'7 0.1
2014-Oct-19 12:33N 37°31' W 000°58'1212.1
2014-Oct-19 11:32N 37°28' W 000°43'1313.2
2014-Oct-19 10:33N 37°37' W 000°31'1313.2
2014-Oct-19 09:32N 37°48' W 000°21'1513.2
2014-Oct-19 08:22N 37°58' W 000°06'10 1.9
2014-Oct-19 03:13N 38°03' E 000°04'1 1.1
2014-Oct-19 02:25N 38°04' E 000°05'1 0.8
2014-Oct-19 00:31N 38°05' E 000°06'0 0.4
2014-Oct-18 23:31N 38°05' E 000°06'0 0.3
2014-Oct-18 22:25N 38°05' E 000°06'1 0.6
2014-Oct-18 20:31N 38°04' E 000°07'1 0.7
2014-Oct-18 19:31N 38°03' E 000°08'1 0.7
2014-Oct-18 17:31N 38°03' E 000°09'1 0.6
2014-Oct-18 16:30N 38°03' E 000°10'1 0.5
2014-Oct-18 15:30N 38°02' E 000°11'0 0.4
2014-Oct-18 14:30N 38°02' E 000°11'1 0.5
2014-Oct-18 13:30N 38°03' E 000°12'1 0.5
2014-Oct-18 12:27N 38°03' E 000°12'1 0.5
2014-Oct-18 11:03N 38°03' E 000°13'0 0.4
2014-Oct-18 10:33N 38°03' E 000°13'5 5.2
2014-Oct-18 09:33N 38°09' E 000°14'1212.2
2014-Oct-18 08:33N 38°21' E 000°14'1212.1
2014-Oct-18 07:33N 38°33' E 000°15'1412.2
2014-Oct-18 06:23N 38°45' E 000°25'1111.8
2014-Oct-18 05:28N 38°54' E 000°32'1111.5
2014-Oct-18 04:33N 39°04' E 000°38'1211.5
2014-Oct-18 03:31N 39°14' E 000°45'2511.3
2014-Oct-18 01:16N 39°37' E 001°01'811.9
2014-Oct-18 00:33N 39°44' E 001°06'1212.0
2014-Oct-17 23:33N 39°55' E 001°13'1212.2
2014-Oct-17 22:34N 40°05' E 001°21'1312.6
2014-Oct-17 21:33N 40°17' E 001°29'1212.2
2014-Oct-17 20:33N 40°27' E 001°36'1211.7
2014-Oct-17 19:33N 40°38' E 001°43'1111.4
2014-Oct-17 18:33N 40°48' E 001°50'1111.4
2014-Oct-17 17:34N 40°58' E 001°57'1211.6
2014-Oct-17 16:33N 41°08' E 002°05'1111.0
2014-Oct-17 15:33N 41°18' E 002°10'3 0.4
2014-Oct-17 08:33N 41°21' E 002°09'5 5.0
2014-Oct-17 07:33N 41°17' E 002°13'1 1.0
2014-Oct-17 06:33N 41°16' E 002°15'10 9.6
2014-Oct-17 05:33N 41°15' E 002°27'1313.2
2014-Oct-17 04:33N 41°14' E 002°45'1212.2
2014-Oct-17 03:33N 41°14' E 003°01'5 0.9
2014-Oct-16 22:23N 41°09' E 003°04'3 0.6
2014-Oct-16 17:11N 41°06' E 003°04'6 1.1
2014-Oct-16 12:05N 41°01' E 003°01'1 1.4
2014-Oct-16 11:23N 41°00' E 003°00'1 1.5
2014-Oct-16 10:23N 40°59' E 002°60'1 1.3
2014-Oct-16 09:26N 40°58' E 002°60'1 1.2
2014-Oct-16 08:29N 40°56' E 002°60'2 1.1
2014-Oct-16 07:05N 40°55' E 002°60'1 1.1
2014-Oct-16 06:29N 40°54' E 002°60'1 1.0
2014-Oct-16 05:32N 40°53' E 002°60'1 0.9
2014-Oct-16 04:32N 40°53' E 002°60'1 0.8
2014-Oct-16 03:29N 40°52' E 002°59'1 0.9
2014-Oct-16 02:32N 40°51' E 002°59'1 1.0
2014-Oct-16 01:29N 40°50' E 002°58'1 1.1
2014-Oct-16 00:32N 40°49' E 002°57'1 1.3
2014-Oct-15 23:32N 40°48' E 002°56'1 1.2
2014-Oct-15 22:32N 40°47' E 002°55'1 1.4
2014-Oct-15 21:32N 40°47' E 002°54'1 1.5
2014-Oct-15 20:32N 40°46' E 002°52'2 1.7
2014-Oct-15 19:29N 40°45' E 002°50'2 2.0
2014-Oct-15 18:33N 40°44' E 002°48'2 1.9
2014-Oct-15 17:33N 40°43' E 002°46'2 1.8
2014-Oct-15 16:30N 40°42' E 002°44'3 1.9
2014-Oct-15 15:06N 40°40' E 002°41'1 1.9
2014-Oct-15 14:33N 40°40' E 002°40'2 1.6
2014-Oct-15 13:21N 40°40' E 002°37'1 1.4
2014-Oct-15 12:21N 40°39' E 002°35'1 1.2
2014-Oct-15 11:30N 40°39' E 002°34'1 1.3
2014-Oct-15 10:30N 40°39' E 002°32'1 1.2
2014-Oct-15 09:30N 40°40' E 002°31'1 0.9
2014-Oct-15 08:33N 40°40' E 002°30'1 1.1
2014-Oct-15 07:33N 40°40' E 002°28'1 1.2
2014-Oct-15 06:30N 40°40' E 002°27'1 1.2
2014-Oct-15 05:27N 40°41' E 002°25'1 1.2
2014-Oct-15 04:30N 40°41' E 002°24'1 1.3
2014-Oct-15 03:33N 40°41' E 002°22'1 1.1
2014-Oct-15 02:33N 40°41' E 002°21'1 1.0
2014-Oct-15 01:30N 40°41' E 002°19'1 0.8
2014-Oct-15 00:33N 40°41' E 002°18'1 0.8
2014-Oct-14 23:33N 40°41' E 002°17'1 0.8
2014-Oct-14 22:33N 40°41' E 002°16'1 1.0
2014-Oct-14 21:33N 40°40' E 002°15'1 1.0
2014-Oct-14 20:33N 40°39' E 002°14'1 0.9
2014-Oct-14 19:33N 40°39' E 002°14'1 1.0
2014-Oct-14 18:30N 40°38' E 002°12'1 1.0
2014-Oct-14 17:33N 40°37' E 002°11'5 5.3
2014-Oct-14 16:34N 40°43' E 002°11'1313.3
2014-Oct-14 15:33N 40°56' E 002°12'1313.3
2014-Oct-14 14:33N 41°09' E 002°13'1110.6
2014-Oct-14 13:33N 41°20' E 002°11'0 0.2
2014-Oct-14 12:28N 41°20' E 002°11'0 0.2
2014-Oct-14 09:33N 41°20' E 002°11'11 9.4
2014-Oct-14 08:24N 41°09' E 002°07'1011.6
2014-Oct-14 07:33N 41°01' E 002°00'1110.5
2014-Oct-14 06:33N 40°52' E 001°54'1 1.0
2014-Oct-14 05:27N 40°51' E 001°54'1 1.1
2014-Oct-14 04:33N 40°50' E 001°54'1 1.1
2014-Oct-14 03:30N 40°49' E 001°55'1 1.2
2014-Oct-14 02:30N 40°47' E 001°55'1 1.1
2014-Oct-14 01:24N 40°46' E 001°56'1 1.1
2014-Oct-14 00:33N 40°45' E 001°56'1 1.0
2014-Oct-13 23:33N 40°44' E 001°56'1 1.0
2014-Oct-13 22:33N 40°43' E 001°56'1 0.9
2014-Oct-13 21:19N 40°42' E 001°56'1 1.0
2014-Oct-13 20:33N 40°41' E 001°56'1 1.1
2014-Oct-13 19:33N 40°40' E 001°55'1 1.2
2014-Oct-13 18:32N 40°39' E 001°54'1 1.1
2014-Oct-13 17:33N 40°38' E 001°54'1111.1
2014-Oct-13 16:33N 40°38' E 002°09'1110.9
2014-Oct-13 15:33N 40°38' E 002°23'1010.3
2014-Oct-13 14:33N 40°38' E 002°37'1010.4
2014-Oct-13 13:33N 40°48' E 002°38'1211.6
2014-Oct-13 12:33N 40°60' E 002°37'10 2.4
2014-Oct-13 08:22N 41°10' E 002°39'1 0.8
2014-Oct-13 07:22N 41°09' E 002°39'1 0.9
2014-Oct-13 06:28N 41°08' E 002°39'1 0.9
2014-Oct-13 05:22N 41°07' E 002°39'1 0.8
2014-Oct-13 04:22N 41°06' E 002°39'1 0.8
2014-Oct-13 03:28N 41°06' E 002°38'1 0.9
2014-Oct-13 02:22N 41°05' E 002°38'1 0.9
2014-Oct-13 01:28N 41°04' E 002°38'  

Dump ship's entire track history